HULIANWANG DIGUI 12G

Last updated on Sun Oct 19 2025 00:02:08 GMT+0000 (Coordinated Universal Time)

1 66001U 25231G 25291.38408994 -.00000112 00000+0 24709-4 0 9990 2 66001 50.0040 348.3690 0006668 286.9969 73.0205 14.05922431 336
UTC large
Height (km)
Speed (km/s)
/
Latitude / Longitude
Inclination (degrees)
Orbital Period (minutes)
Azimuth
Elevation
Range (km)
Doppler Factor

Next 0 passes for location: London (51.5072 / 0.1276)

Sorry there are no passes over London.